Regional Weather Roundup
Issued by NWS

Home | Current Version | Previous Version | Text Only | Print | Product List | Glossary On
Versions: 1 2 3 4 5 6 7 8 9 10 11 12 13 14 15 16 17 18 19 20 21 22 23 24 25 26 27 28 29 30 31 32 33 34 35 36 37 38 39 40 41 42 43 44 45 46 47 48 49 50
000
ASUS42 KFFC 241010
RWRGA
WEATHER ROUNDUP FOR GEORGIA
NATIONAL WEATHER SERVICE PEACHTREE CITY GA
600 AM EDT SAT JUN 24 2017

NOTE: "FAIR" INDICATES FEW OR NO CLOUDS BELOW 12,000 FEET WITH NO
SIGNIFICANT WEATHER AND/OR OBSTRUCTIONS TO VISIBILITY.

* = USE WITH CAUTION. THE STATIONS MARKED WITH AN ASTERISK MAY NOT
REPORT WEATHER SUCH AS PRECIPITATION, FOG, OR THUNDER AND ARE NOT
QUALITY CONTROLLED BY NWS.

THE REMARK "TC" DENOTES TEMPERATURE READING IN DEGREES CELSIUS.

GAZ001>058-241100-
NORTH GEORGIA

CITY           SKY/WX    TMP DP  RH WIND       PRES   REMARKS
ATLANTA        CLOUDY    73  71  93 SW6       29.98S
ATHENS         MOCLDY    72  72 100 SW5       29.97R
CHAMBLEE       CLOUDY    72  69  90 SW9       29.98R
PEACHTREE CITY CLOUDY    73  72  96 CALM      29.99S
ROME           LGT RAIN  74  74 100 SW5       29.95S
WEST ATLANTA   LGT RAIN  72  72 100 SW5       29.98R
GAINESVILLE    LGT RAIN  72  72 100 W7        30.00R FOG
CARTERSVILLE   LGT RAIN  72  72 100 CALM      29.97S


CITY           SKY/WX    TMP DP  RH WIND       PRES   REMARKS
DALTON*        CLOUDY    72  72 100 CALM      29.95S
MARIETTA       LGT RAIN  72  70  94 SW5       29.98R
CANTON*        RAIN      73  73 100 CALM      29.99S
$$

GAZ059>098-102>109-241100-
CENTRAL GEORGIA

CITY           SKY/WX    TMP DP  RH WIND       PRES   REMARKS
AUGUSTA-BUSH   CLEAR     77  74  90 S6        29.95S
AUGUSTA-DANIEL CLEAR     78  72  81 SW6       29.97S
COLUMBUS       CLOUDY    75  72  90 SW3       29.98R
MACON          CLEAR     74  70  87 W5        29.97S
ROBINS AFB     PTCLDY    76  72  85 SW7       29.97S


CITY           SKY/WX    TMP DP  RH WIND       PRES   REMARKS
LAGRANGE*      CLOUDY    74  73  98 SW3       29.98S
SYLVANIA*      CLEAR     76  76 100 SW5       29.99S
MILLEDGEVILLE* PTCLDY    73  73 100 CALM      29.97S
$$

GAZ099>101-110>166-241100-
SOUTH GEORGIA

CITY           SKY/WX    TMP DP  RH WIND       PRES   REMARKS
SAVANNAH       PTCLDY    76  71  85 SW7       30.01R
VALDOSTA       CLOUDY    73  73 100 CALM      30.01S FOG
ALMA           PTCLDY    74  72  93 S3        30.01R FOG
ST SIMONS      CLEAR     79  76  90 SW5       30.00S
FT STEWART     PTCLDY    75  71  89 SW5       29.99R
ALBANY         PTCLDY    73  72  96 CALM      30.02R
HUNTER AFB     PTCLDY    76  73  91 CALM      29.98R
MOODY AFB      MOCLDY    75  73  94 W3        30.00R
BRUNSWICK      CLEAR     77  75  94 SW5       30.01R


CITY           SKY/WX    TMP DP  RH WIND       PRES   REMARKS
BAINBRIDGE*    PTCLDY    79  79 100 CALM      30.00S
MOULTRIE*      PTCLDY    73  72  94 CALM      30.01F
VIDALIA*       CLEAR     77  73  88 SW3       29.99F
WAYCROSS*      CLEAR     76  76 100 CALM      30.02R
DOUGLAS*       MOCLDY    73  72  94 CALM      30.02S
$$




USA.gov is the U.S. government's official web portal to all federal, state and local government web resources and services.